Hourly Data Report for September 14, 2003

SHERBROOKE A
QUEBEC

45°26'00.000" N
71°41'00.000" W
241.40 m
7028124
71610
YSC

Download Data

Hourly Data (September 2003)
Hourly Data Report for September 14, 2003
TIME
LST
Temp Definition
°C
Dew Point Definition
°C
Rel Hum Definition
%
Precip. Amount Definition
mm

Wind Dir Definition
10's deg

Wind Spd Definition
km/h
Visibility Definition
km
Stn Press Definition
kPa
Hmdx Definition


Wind Chill Definition


Weather Definition


00:00 16.1 14.9 93   18 4 15.0 99.77      
01:00 16.7 15.1 90   16 6 15.0 99.76      
02:00 16.8 15.3 91   9 6 15.0 99.73      
03:00 16.7 15.5 93   12 4 12.9 99.72      
04:00 16.6 15.7 94     0 4.0 99.74     Rain
05:00 17.2 16.3 94   11 7 15.0 99.76      
06:00 17.5 16.7 95   9 4 11.3 99.76      
07:00 18.4 17.3 93   10 7 19.3 99.74     Mostly Cloudy
08:00 19.2 18.0 93   11 4 19.3 99.74     Mostly Cloudy
09:00 20.3 18.5 89     0 24.1 99.72 27   Mostly Cloudy
10:00 22.6 20.1 86   14 6 24.1 99.69 30   Mostly Cloudy
11:00 25.1 20.1 74   18 13 24.1 99.66 33   Mostly Cloudy
12:00 25.6 19.5 69   14 4 24.1 99.57 33   Mostly Cloudy
13:00 25.5 20.4 73   24 6 24.1 99.54 33   Mostly Cloudy
14:00 26.1 20.5 71   15 6 24.1 99.48 34   Mostly Cloudy
15:00 25.5 20.7 75   21 4 24.1 99.44 34   Mostly Cloudy
16:00 23.6 19.8 79   17 9 24.1 99.43 31   Rain Showers
17:00 22.3 20.2 88   15 6 15.0 99.43 30   Rain
18:00 21.8 19.7 88   16 6 15.0 99.44 29    
19:00 20.5 19.1 92   14 7 15.0 99.45 27    
20:00 20.6 18.8 89   18 6 15.0 99.46 27    
21:00 19.8 18.3 91   14 6 15.0 99.44      
22:00 19.1 17.7 92     0 15.0 99.41      
23:00 19.3 17.8 91   16 6 15.0 99.39      

Notes on Data Quality.

Legend

  • E = Estimated
  • M = Missing
  • NA = Not Available*
  • [empty] = Indicates an unobserved value
Date modified: